GW3634 Weather Reports


Display with metric or nautical units.
time (UTC)temp
F
wind
direction
speed
MPH
gust
MPH
rain 1hr
in
rain 24hr
in
rain mn
in
humidity
%
barometer
mb
20260506015339 59 7 7.0 11.0 0.00 0.00 0.00 82 1039.2
20260506014836 59 25 4.0 15.0 0.00 0.00 0.00 82 1039.0
20260506014333 59 14 4.0 9.0 0.00 0.00 0.00 82 1039.2
20260506013829 59 16 12.0 14.0 0.00 0.00 0.00 81 1039.0
20260506013327 59 320 2.0 10.0 0.00 0.00 0.00 82 1039.1
20260506012823 60 354 4.0 10.0 0.00 0.00 0.00 81 1038.7
20260506012320 60 20 4.0 10.0 0.00 0.00 0.00 81 1038.9
20260506011817 60 335 7.0 9.0 0.00 0.00 0.00 81 1038.5
20260506011314 60 344 5.0 10.0 0.00 0.00 0.00 81 1038.2
20260506010811 60 27 11.0 12.0 0.00 0.00 0.00 80 1038.2
20260506010309 60 0 3.0 10.0 0.00 0.00 0.00 80 1038.4
20260506005806 61 352 4.0 10.0 0.00 0.00 0.00 80 1038.5
20260506005305 61 20 8.0 12.0 0.00 0.00 0.00 79 1038.4
20260506004759 62 4 3.0 9.0 0.00 0.00 0.00 79 1038.3
20260506004257 62 13 5.0 12.0 0.00 0.00 0.00 78 1038.1
20260506003752 62 343 7.0 14.0 0.00 0.00 0.00 78 1037.8
20260506003249 63 9 3.0 11.0 0.00 0.00 0.00 77 1037.9
20260506002745 64 2 6.0 9.0 0.00 0.00 0.00 77 1037.8
20260506002241 64 21 6.0 9.0 0.00 0.00 0.00 76 1037.8
20260506001737 65 13 9.0 11.0 0.00 0.00 0.00 76 1037.8
20260506001235 65 316 6.0 11.0 0.00 0.00 0.00 76 1037.7
20260506000732 66 7 3.0 8.0 0.00 0.00 0.00 75 1037.5
20260506000229 66 3 8.0 12.0 0.00 0.00 0.00 74 1037.6
20260505235726 67 353 3.0 9.0 0.00 0.00 0.00 75 1037.8
20260505235224 67 335 3.0 9.0 0.00 0.00 0.00 75 1037.8
20260505234720 67 354 7.0 12.0 0.00 0.00 0.00 75 1037.8
20260505234218 68 354 4.0 8.0 0.00 0.00 0.00 75 1037.6
20260505233714 68 312 8.0 11.0 0.00 0.00 0.00 74 1037.6
20260505233212 68 306 5.0 11.0 0.00 0.00 0.00 74 1037.5
20260505232709 68 324 7.0 14.0 0.00 0.00 0.00 74 1037.4
20260505232207 68 311 9.0 16.0 0.00 0.00 0.00 73 1037.4
20260505231703 69 307 8.0 16.0 0.00 0.00 0.00 73 1037.5
20260505231203 69 319 10.0 17.0 0.00 0.00 0.00 72 1037.3
20260505230700 70 318 7.0 14.0 0.00 0.00 0.00 72 1037.1
20260505230156 71 319 8.0 13.0 0.00 0.00 0.00 72 1037.5
20260505225653 72 326 10.0 12.0 0.00 0.00 0.00 72 1037.4
20260505225149 73 296 8.0 12.0 0.00 0.00 0.00 71 1036.9
20260505224645 73 323 5.0 10.0 0.00 0.00 0.00 71 1036.9
20260505224143 73 312 6.0 15.0 0.00 0.00 0.00 70 1037.1
20260505223635 73 311 9.0 13.0 0.00 0.00 0.00 69 1036.8
20260505223130 73 284 3.0 9.0 0.00 0.00 0.00 70 1036.8
20260505222627 73 305 9.0 10.0 0.00 0.00 0.00 69 1036.5
20260505222123 74 323 6.0 15.0 0.00 0.00 0.00 68 1036.4
20260505221620 74 311 7.0 14.0 0.00 0.00 0.00 68 1036.3
20260505221117 74 308 5.0 10.0 0.00 0.00 0.00 69 1036.1
20260505220614 74 323 2.0 10.0 0.00 0.00 0.00 68 1036.2
20260505220112 75 319 8.0 10.0 0.00 0.00 0.00 66 1036.2
20260505215609 75 324 8.0 12.0 0.00 0.00 0.00 65 1036.1
20260505215107 75 335 8.0 13.0 0.00 0.00 0.00 67 1036.2
20260505214605 76 315 6.0 13.0 0.00 0.00 0.00 64 1036.1
20260505214102 77 320 6.0 12.0 0.00 0.00 0.00 65 1036.1
20260505213559 76 315 6.0 13.0 0.00 0.00 0.00 66 1035.9
20260505213055 76 310 6.0 12.0 0.00 0.00 0.00 64 1035.9
20260505212552 77 324 6.0 10.0 0.00 0.00 0.00 64 1035.8
20260505212049 77 301 7.0 11.0 0.00 0.00 0.00 63 1035.9
20260505211541 77 294 6.0 13.0 0.00 0.00 0.00 62 1036.1
20260505211037 77 312 5.0 12.0 0.00 0.00 0.00 61 1036.1
20260505210534 78 311 5.0 15.0 0.00 0.00 0.00 58 1035.9
20260505210032 79 314 9.0 12.0 0.00 0.00 0.00 56 1036.1
20260505205530 80 303 6.0 12.0 0.00 0.00 0.00 54 1036.1
20260505205026 80 288 8.0 11.0 0.00 0.00 0.00 52 1035.9
20260505204524 81 296 13.0 15.0 0.00 0.00 0.00 49 1036.0
20260505204021 82 302 7.0 10.0 0.00 0.00 0.00 49 1035.8
20260505203517 82 310 5.0 14.0 0.00 0.00 0.00 50 1035.8
20260505203015 82 306 5.0 10.0 0.00 0.00 0.00 49 1036.1
20260505202511 81 291 6.0 16.0 0.00 0.00 0.00 49 1035.9
20260505202006 82 279 11.0 14.0 0.00 0.00 0.00 47 1035.6
20260505201504 82 291 6.0 11.0 0.00 0.00 0.00 48 1035.8
20260505201001 82 285 8.0 14.0 0.00 0.00 0.00 45 1035.7
20260505200459 82 251 9.0 10.0 0.00 0.00 0.00 46 1035.7
20260505195954 82 286 6.0 14.0 0.00 0.00 0.00 45 1035.7
20260505195452 82 280 11.0 16.0 0.00 0.00 0.00 45 1035.8
20260505194949 83 279 7.0 18.0 0.00 0.00 0.00 45 1035.6
20260505194447 85 299 11.0 13.0 0.00 0.00 0.00 50 1035.5
20260505193947 85 276 5.0 13.0 0.00 0.00 0.00 57 1035.7
20260505193444 84 283 5.0 10.0 0.00 0.00 0.00 59 1035.3
20260505192942 83 263 8.0 10.0 0.00 0.00 0.00 59 1035.3
20260505192440 83 259 5.0 9.0 0.00 0.00 0.00 60 1035.5
20260505191937 82 276 7.0 9.0 0.00 0.00 0.00 59 1035.2
20260505191436 82 288 6.0 11.0 0.00 0.00 0.00 60 1035.7
20260505190932 82 273 6.0 9.0 0.00 0.00 0.00 59 1035.4
20260505190427 82 233 7.0 15.0 0.00 0.00 0.00 59 1035.4
20260505185923 82 273 11.0 13.0 0.00 0.00 0.00 58 1035.2
20260505185421 83 271 6.0 10.0 0.00 0.00 0.00 58 1035.1
20260505184917 83 281 7.0 12.0 0.00 0.00 0.00 58 1035.3
20260505184414 84 277 14.0 15.0 0.00 0.00 0.00 57 1035.5
20260505183910 84 255 3.0 12.0 0.00 0.00 0.00 58 1035.3
20260505183407 83 280 3.0 13.0 0.00 0.00 0.00 60 1035.2
20260505182904 83 269 3.0 9.0 0.00 0.00 0.00 63 1035.1
20260505182401 82 172 2.0 9.0 0.00 0.00 0.00 63 1035.1
20260505181857 81 288 9.0 14.0 0.00 0.00 0.00 63 1035.4
20260505181355 82 273 6.0 8.0 0.00 0.00 0.00 63 1035.3
20260505180851 82 291 8.0 13.0 0.00 0.00 0.00 63 1035.6
20260505180348 82 265 9.0 9.0 0.00 0.00 0.00 64 1035.6
20260505175844 81 266 3.0 14.0 0.00 0.00 0.00 65 1035.5
20260505175340 81 269 2.0 8.0 0.00 0.00 0.00 66 1035.4
20260505174837 81 253 5.0 8.0 0.00 0.00 0.00 67 1035.5
20260505174335 80 259 4.0 11.0 0.00 0.00 0.00 67 1035.2
20260505173831 80 248 9.0 13.0 0.00 0.00 0.00 66 1035.3
20260505173327 80 242 5.0 11.0 0.00 0.00 0.00 68 1035.6
20260505172825 80 252 6.0 14.0 0.00 0.00 0.00 68 1035.6
20260505172322 79 261 6.0 8.0 0.00 0.00 0.00 70 1035.1
20260505171822 79 255 3.0 10.0 0.00 0.00 0.00 70 1034.8
20260505171319 79 199 3.0 7.0 0.00 0.00 0.00 70 1034.8
20260505170815 78 249 4.0 7.0 0.00 0.00 0.00 72 1035.1
20260505170312 78 242 2.0 11.0 0.00 0.00 0.00 72 1035.3
20260505165808 77 228 2.0 10.0 0.00 0.00 0.00 72 1035.2
20260505165306 78 174 3.0 11.0 0.00 0.00 0.00 72 1034.8
20260505164759 78 208 3.0 12.0 0.00 0.00 0.00 72 1035.0
20260505164256 77 339 3.0 8.0 0.00 0.00 0.00 73 1034.9
20260505163755 77 226 5.0 11.0 0.00 0.00 0.00 73 1035.0
20260505163253 77 230 7.0 8.0 0.00 0.00 0.00 74 1034.9
20260505162750 77 219 5.0 5.0 0.00 0.00 0.00 75 1035.1
20260505162247 77 184 5.0 6.0 0.00 0.00 0.00 74 1035.1
20260505161744 76 221 3.0 12.0 0.00 0.00 0.00 73 1035.1
20260505161241 76 274 5.0 11.0 0.00 0.00 0.00 73 1035.1
20260505160738 76 228 4.0 9.0 0.00 0.00 0.00 75 1035.0
20260505160236 76 239 7.0 9.0 0.00 0.00 0.00 74 1034.7
20260505153215 77 250 6.0 14.0 0.00 0.00 0.00 70 1034.7
20260505152712 78 266 7.0 9.0 0.00 0.00 0.00 69 1034.7
20260505152208 78 227 3.0 7.0 0.00 0.00 0.00 71 1034.3
20260505151703 77 255 8.0 16.0 0.00 0.00 0.00 70 1034.3
20260505151201 77 257 4.0 13.0 0.00 0.00 0.00 72 1034.4
20260505150657 77 236 6.0 17.0 0.00 0.00 0.00 71 1034.4
20260505150154 77 286 4.0 14.0 0.00 0.00 0.00 71 1034.5
20260505140617 73 229 4.0 13.0 0.00 0.00 0.00 81 1034.1
20260505140114 72 236 2.0 9.0 0.00 0.00 0.00 81 1034.1
20260505125030 70 169 7.0 9.0 0.00 0.00 0.00 84 1034.0
20260505124527 70 255 3.0 7.0 0.00 0.00 0.00 84 1033.9
20260505124023 70 256 6.0 10.0 0.00 0.00 0.00 84 1034.1
20260505123520 70 242 5.0 7.0 0.00 0.00 0.00 85 1033.9
20260505123016 70 253 7.0 16.0 0.00 0.00 0.00 84 1033.9
20260505122513 70 239 2.0 7.0 0.00 0.00 0.00 84 1034.0
20260505122010 70 187 4.0 11.0 0.00 0.00 0.00 84 1033.9
20260505121506 70 206 3.0 10.0 0.00 0.00 0.00 84 1033.6
20260505121003 70 209 3.0 9.0 0.00 0.00 0.00 84 1033.5
20260505120500 70 276 5.0 7.0 0.00 0.00 0.00 84 1033.7
20260505115958 70 244 2.0 11.0 0.00 0.00 0.00 84 1033.6
20260505115455 70 216 3.0 8.0 0.00 0.00 0.00 84 1033.6
20260505114953 70 285 7.0 8.0 0.00 0.00 0.00 84 1033.3
20260505114449 70 198 5.0 10.0 0.00 0.00 0.00 84 1033.1
20260505113946 70 238 4.0 7.0 0.00 0.00 0.00 84 1033.1
20260505113442 70 200 5.0 8.0 0.00 0.00 0.00 83 1033.5
20260505112938 70 269 4.0 9.0 0.00 0.00 0.00 83 1033.3
20260505112436 70 264 2.0 9.0 0.00 0.00 0.00 83 1033.5
20260505111932 70 265 5.0 11.0 0.00 0.00 0.00 83 1033.3
20260505111426 70 191 7.0 8.0 0.00 0.00 0.00 83 1033.1
20260505110922 71 269 7.0 9.0 0.00 0.00 0.00 83 1033.4
20260505110419 71 248 13.0 17.0 0.00 0.00 0.00 82 1033.1
20260505101851 71 254 2.0 8.0 0.00 0.00 0.00 81 1033.4
20260505101345 71 197 2.0 11.0 0.00 0.00 0.00 81 1033.4
20260505100841 71 268 4.0 11.0 0.00 0.00 0.00 81 1033.4
20260505100338 71 215 4.0 12.0 0.00 0.00 0.00 81 1033.2
20260505095833 71 228 4.0 15.0 0.00 0.00 0.00 80 1033.2
20260505095331 71 227 3.0 15.0 0.00 0.00 0.00 80 1033.0
20260505094827 71 192 4.0 7.0 0.00 0.00 0.00 80 1033.3
20260505094324 71 202 5.0 12.0 0.00 0.00 0.00 80 1033.3
20260505093819 71 211 3.0 10.0 0.00 0.00 0.00 79 1033.1
20260505093318 71 215 4.0 9.0 0.00 0.00 0.00 79 1033.1
20260505092814 71 240 4.0 14.0 0.00 0.00 0.00 79 1033.2
20260505092313 72 225 4.0 12.0 0.00 0.00 0.00 78 1033.3
20260505091810 72 246 2.0 7.0 0.00 0.00 0.00 78 1033.0
20260505091308 72 224 5.0 11.0 0.00 0.00 0.00 78 1033.3
20260505090805 72 224 4.0 13.0 0.00 0.00 0.00 77 1033.5
20260505090303 72 226 7.0 11.0 0.00 0.00 0.00 77 1033.4
20260505085800 72 230 4.0 13.0 0.00 0.00 0.00 76 1033.5
20260505085258 72 208 4.0 9.0 0.00 0.00 0.00 76 1033.4
20260505084755 72 263 4.0 15.0 0.00 0.00 0.00 76 1033.1
20260505084255 73 257 7.0 16.0 0.00 0.00 0.00 75 1033.5
20260505083751 73 214 5.0 11.0 0.00 0.00 0.00 75 1033.4
20260505083248 73 218 5.0 15.0 0.00 0.00 0.00 75 1033.3
20260505082744 73 202 8.0 13.0 0.00 0.00 0.00 74 1033.0
20260505082241 73 220 5.0 9.0 0.00 0.00 0.00 74 1033.4
20260505081737 73 271 5.0 13.0 0.00 0.00 0.00 74 1033.3
20260505081235 73 276 4.0 15.0 0.00 0.00 0.00 74 1033.4
20260505080731 73 232 4.0 15.0 0.00 0.00 0.00 74 1033.4
20260505080227 73 204 5.0 11.0 0.00 0.00 0.00 74 1033.4
20260505075722 73 241 2.0 10.0 0.00 0.00 0.00 74 1033.7
20260505075220 73 221 4.0 13.0 0.00 0.00 0.00 73 1033.9
20260505074717 73 241 4.0 13.0 0.00 0.00 0.00 73 1034.0
20260505074214 73 225 4.0 11.0 0.00 0.00 0.00 73 1033.7
20260505073712 73 196 2.0 9.0 0.00 0.00 0.00 73 1034.0
20260505073210 73 200 7.0 12.0 0.00 0.00 0.00 73 1034.0
20260505072705 73 255 6.0 11.0 0.00 0.00 0.00 73 1034.0
20260505072202 73 262 7.0 13.0 0.00 0.00 0.00 73 1034.3
20260505071657 73 180 5.0 9.0 0.00 0.00 0.00 73 1034.3
20260505071155 73 184 3.0 12.0 0.00 0.00 0.00 72 1034.2
20260505070652 73 213 10.0 17.0 0.00 0.00 0.00 72 1034.6
20260505070149 73 242 3.0 10.0 0.00 0.00 0.00 73 1034.6
20260505065644 73 239 3.0 15.0 0.00 0.00 0.00 72 1034.6
20260505065141 73 189 7.0 15.0 0.00 0.00 0.00 72 1034.6
20260505064638 73 266 3.0 13.0 0.00 0.00 0.00 73 1034.8
20260505064136 73 241 6.0 10.0 0.00 0.00 0.00 73 1034.8
20260505063634 73 260 5.0 8.0 0.00 0.00 0.00 73 1034.9
20260505063130 73 245 10.0 12.0 0.00 0.00 0.00 73 1035.0
20260505062626 73 254 4.0 16.0 0.00 0.00 0.00 73 1034.8
20260505062123 73 227 4.0 11.0 0.00 0.00 0.00 73 1034.9
20260505061620 73 245 4.0 18.0 0.00 0.00 0.00 73 1035.0
20260505061119 73 265 3.0 13.0 0.00 0.00 0.00 73 1034.9
20260505060616 73 184 13.0 15.0 0.00 0.00 0.00 72 1034.8
20260505060113 73 310 4.0 13.0 0.00 0.00 0.00 72 1035.1
20260505055608 73 177 6.0 13.0 0.00 0.00 0.00 72 1035.2
20260505055104 73 257 4.0 11.0 0.00 0.00 0.00 72 1035.1
20260505054602 73 197 8.0 16.0 0.00 0.00 0.00 72 1035.0
20260505054100 73 215 5.0 13.0 0.00 0.00 0.00 72 1035.1
20260505053557 73 179 4.0 8.0 0.00 0.00 0.00 72 1035.2
20260505053053 73 187 4.0 9.0 0.00 0.00 0.00 72 1035.1
20260505052550 73 237 3.0 9.0 0.00 0.00 0.00 72 1035.3
20260505052048 73 205 5.0 14.0 0.00 0.00 0.00 72 1035.1
20260505051544 73 181 10.0 13.0 0.00 0.00 0.00 72 1035.3
20260505051043 73 160 2.0 11.0 0.00 0.00 0.00 72 1035.1
20260505050541 74 253 6.0 14.0 0.00 0.00 0.00 71 1035.4
20260505041508 74 174 8.0 13.0 0.00 0.00 0.00 71 1035.7
20260505041006 73 216 5.0 9.0 0.00 0.00 0.00 71 1035.5
20260505040503 73 230 7.0 16.0 0.00 0.00 0.00 71 1035.6
20260505040000 73 219 3.0 11.0 0.00 0.00 0.00 71 1035.8
20260505035455 73 208 4.0 17.0 0.00 0.00 0.00 71 1035.9
20260505034953 73 186 5.0 13.0 0.00 0.00 0.00 71 1035.8
20260505034449 73 233 5.0 8.0 0.00 0.00 0.00 71 1035.8
20260505033947 73 137 3.0 13.0 0.00 0.00 0.00 71 1035.7
20260505033443 73 211 5.0 12.0 0.00 0.00 0.00 71 1035.7
20260505032942 73 176 6.0 9.0 0.00 0.00 0.00 71 1035.6
20260505032439 73 203 6.0 9.0 0.00 0.00 0.00 71 1036.0
20260505031935 73 186 5.0 11.0 0.00 0.00 0.00 70 1036.0
20260505031432 73 225 3.0 10.0 0.00 0.00 0.00 71 1036.0
20260505030929 73 202 5.0 9.0 0.00 0.00 0.00 70 1036.2
20260505030424 73 173 7.0 11.0 0.00 0.00 0.00 71 1035.8
20260505025920 73 165 5.0 12.0 0.00 0.00 0.00 70 1035.9
20260505025418 73 217 7.0 11.0 0.00 0.00 0.00 70 1036.0
20260505024917 73 187 6.0 14.0 0.00 0.00 0.00 70 1036.1
20260505024414 73 177 6.0 11.0 0.00 0.00 0.00 70 1036.0
20260505023911 74 194 6.0 13.0 0.00 0.00 0.00 69 1035.9
20260505023408 74 227 3.0 9.0 0.00 0.00 0.00 70 1036.2
20260505022904 74 194 5.0 10.0 0.00 0.00 0.00 69 1036.1
20260505022401 74 207 5.0 7.0 0.00 0.00 0.00 69 1036.2
20260505021859 74 219 5.0 8.0 0.00 0.00 0.00 69 1035.9
20260505021355 74 181 5.0 7.0 0.00 0.00 0.00 69 1036.0
20260505020851 74 183 2.0 11.0 0.00 0.00 0.00 69 1035.9
20260505020347 74 224 4.0 8.0 0.00 0.00 0.00 69 1035.8
20260505015844 74 198 6.0 14.0 0.00 0.00 0.00 68 1035.8